Wetterdaten: Mittwoch, 31.08.2016
Datum Zeit Temp. A. Aussentemp2 Feuchte A. Luftdruck Regen Wind Richtung Richtung Sonnenschein Helligkeit Solar
31.08.2016 00:04 18,9 C 21,7 C 56 % 1021,7 hPa 0,0 l/m 15,3 km/h (3 Bft) O22.5 85 0 min 0 lux 0 W/m
31.08.2016 00:09 18,9 C 21,7 C 56 % 1021,7 hPa 0,0 l/m 15,1 km/h (3 Bft) O22.5 80 0 min 0 lux 0 W/m
31.08.2016 00:14 18,8 C 21,7 C 56 % 1021,7 hPa 0,0 l/m 18,0 km/h (3 Bft) O67.5 90 0 min 0 lux 0 W/m
31.08.2016 00:18 18,7 C 21,7 C 56 % 1021,7 hPa 0,0 l/m 14,8 km/h (3 Bft) O22.5 90 0 min 0 lux 0 W/m
31.08.2016 00:24 18,6 C 21,7 C 56 % 1021,7 hPa 0,0 l/m 15,7 km/h (3 Bft) O45 90 0 min 0 lux 0 W/m
31.08.2016 00:29 18,5 C 21,7 C 57 % 1021,7 hPa 0,0 l/m 13,7 km/h (3 Bft) O45 90 0 min 0 lux 0 W/m
31.08.2016 00:34 18,4 C 21,7 C 57 % 1021,7 hPa 0,0 l/m 13,0 km/h (3 Bft) O22.5 90 0 min 0 lux 0 W/m
31.08.2016 00:39 18,1 C 21,6 C 57 % 1021,7 hPa 0,0 l/m 8,9 km/h (2 Bft) O45 85 0 min 0 lux 0 W/m
31.08.2016 00:44 18,1 C 21,5 C 58 % 1021,7 hPa 0,0 l/m 11,9 km/h (2 Bft) O-SO45 110 0 min 0 lux 0 W/m
31.08.2016 00:49 17,8 C 21,5 C 59 % 1021,7 hPa 0,0 l/m 3,8 km/h (1 Bft) O 80 0 min 0 lux 0 W/m
31.08.2016 00:54 17,5 C 21,5 C 59 % 1021,7 hPa 0,0 l/m 8,5 km/h (2 Bft) O22.5 90 0 min 0 lux 0 W/m
31.08.2016 00:59 17,4 C 21,4 C 60 % 1021,7 hPa 0,0 l/m 5,7 km/h (2 Bft) O-SO22.5 110 0 min 0 lux 0 W/m
31.08.2016 01:04 17,2 C 21,4 C 60 % 1021,7 hPa 0,0 l/m 10,0 km/h (2 Bft) O22.5 95 0 min 0 lux 0 W/m
31.08.2016 01:09 17,1 C 21,4 C 60 % 1021,7 hPa 0,0 l/m 8,9 km/h (2 Bft) O22.5 95 0 min 0 lux 0 W/m
31.08.2016 01:14 17,1 C 21,4 C 61 % 1020,7 hPa 0,0 l/m 10,0 km/h (2 Bft) O22.5 85 0 min 0 lux 0 W/m
31.08.2016 01:19 17,0 C 21,3 C 60 % 1020,7 hPa 0,0 l/m 0,4 km/h (0 Bft) O 85 0 min 0 lux 0 W/m
31.08.2016 01:24 16,9 C 21,1 C 60 % 1020,7 hPa 0,0 l/m 0,0 km/h (0 Bft) O 80 0 min 0 lux 0 W/m
31.08.2016 01:29 16,9 C 21,1 C 60 % 1020,7 hPa 0,0 l/m 0,4 km/h (0 Bft) O 80 0 min 0 lux 0 W/m
31.08.2016 01:34 16,4 C 21,0 C 61 % 1020,7 hPa 0,0 l/m 0,0 km/h (0 Bft) O 80 0 min 0 lux 0 W/m
31.08.2016 01:39 16,2 C 20,9 C 61 % 1020,7 hPa 0,0 l/m 0,0 km/h (0 Bft) O 80 0 min 0 lux 0 W/m
31.08.2016 01:44 16,0 C 20,7 C 62 % 1020,7 hPa 0,0 l/m 0,0 km/h (0 Bft) O 80 0 min 0 lux 0 W/m
31.08.2016 01:49 15,8 C 20,6 C 62 % 1020,7 hPa 0,0 l/m 0,0 km/h (0 Bft) O 80 0 min 0 lux 0 W/m
31.08.2016 01:54 15,6 C 20,8 C 63 % 1020,7 hPa 0,0 l/m 0,0 km/h (0 Bft) O 80 0 min 0 lux 0 W/m
31.08.2016 01:59 15,2 C 20,9 C 63 % 1020,7 hPa 0,0 l/m 0,0 km/h (0 Bft) O 80 0 min 0 lux 0 W/m
31.08.2016 02:04 15,0 C 21,0 C 63 % 1020,7 hPa 0,0 l/m 0,0 km/h (0 Bft) O 80 0 min 0 lux 0 W/m
31.08.2016 02:09 15,0 C 21,0 C 65 % 1020,7 hPa 0,0 l/m 0,0 km/h (0 Bft) O 80 0 min 0 lux 0 W/m
31.08.2016 02:14 14,9 C 20,9 C 65 % 1020,7 hPa 0,0 l/m 0,0 km/h (0 Bft) O 80 0 min 0 lux 0 W/m
31.08.2016 02:19 15,0 C 20,8 C 65 % 1020,7 hPa 0,0 l/m 0,0 km/h (0 Bft) O 80 0 min 0 lux 0 W/m
31.08.2016 02:24 15,0 C 20,8 C 65 % 1020,7 hPa 0,0 l/m 0,0 km/h (0 Bft) O 80 0 min 0 lux 0 W/m
31.08.2016 02:29 15,1 C 20,6 C 65 % 1020,7 hPa 0,0 l/m 0,3 km/h (0 Bft) O 80 0 min 0 lux 0 W/m
31.08.2016 02:34 15,2 C 20,9 C 65 % 1020,7 hPa 0,0 l/m 0,1 km/h (0 Bft) O 80 0 min 0 lux 0 W/m
31.08.2016 02:39 15,2 C 20,7 C 65 % 1020,7 hPa 0,0 l/m 0,1 km/h (0 Bft) O 80 0 min 0 lux 0 W/m
31.08.2016 02:44 15,1 C 20,6 C 65 % 1020,7 hPa 0,0 l/m 4,2 km/h (1 Bft) O 80 0 min 0 lux 0 W/m
31.08.2016 02:48 14,8 C 20,6 C 65 % 1020,7 hPa 0,0 l/m 0,0 km/h (0 Bft) O 80 0 min 0 lux 0 W/m
31.08.2016 02:54 14,6 C 20,5 C 65 % 1020,8 hPa 0,0 l/m 0,0 km/h (0 Bft) O 80 0 min 0 lux 0 W/m
31.08.2016 02:59 14,2 C 20,3 C 67 % 1020,8 hPa 0,0 l/m 0,0 km/h (0 Bft) O 80 0 min 0 lux 0 W/m
31.08.2016 03:04 13,9 C 20,4 C 66 % 1020,8 hPa 0,0 l/m 0,0 km/h (0 Bft) O 80 0 min 0 lux 0 W/m
31.08.2016 03:09 13,8 C 20,5 C 66 % 1020,8 hPa 0,0 l/m 0,0 km/h (0 Bft) O 80 0 min 0 lux 0 W/m
31.08.2016 03:14 13,8 C 20,5 C 67 % 1020,8 hPa 0,0 l/m 0,0 km/h (0 Bft) O 80 0 min 0 lux 0 W/m
31.08.2016 03:19 13,7 C 20,4 C 67 % 1020,8 hPa 0,0 l/m 0,0 km/h (0 Bft) O 80 0 min 0 lux 0 W/m
31.08.2016 03:24 13,7 C 20,4 C 67 % 1020,8 hPa 0,0 l/m 0,0 km/h (0 Bft) O 80 0 min 0 lux 0 W/m
31.08.2016 03:29 13,7 C 20,4 C 68 % 1020,8 hPa 0,0 l/m 0,0 km/h (0 Bft) O 80 0 min 0 lux 0 W/m
31.08.2016 03:33 13,9 C 20,3 C 68 % 1020,8 hPa 0,0 l/m 0,0 km/h (0 Bft) O 80 0 min 0 lux 0 W/m
31.08.2016 03:39 14,0 C 20,2 C 68 % 1020,8 hPa 0,0 l/m 0,0 km/h (0 Bft) O 80 0 min 0 lux 0 W/m
31.08.2016 03:44 14,1 C 20,3 C 68 % 1020,8 hPa 0,0 l/m 0,4 km/h (0 Bft) O 80 0 min 0 lux 0 W/m
31.08.2016 03:49 14,2 C 20,2 C 68 % 1020,8 hPa 0,0 l/m 0,0 km/h (0 Bft) O 80 0 min 0 lux 0 W/m
31.08.2016 03:54 14,3 C 20,3 C 67 % 1020,8 hPa 0,0 l/m 0,0 km/h (0 Bft) O 80 0 min 0 lux 0 W/m
31.08.2016 03:59 14,2 C 20,3 C 67 % 1020,8 hPa 0,0 l/m 0,0 km/h (0 Bft) O 80 0 min 0 lux 0 W/m
31.08.2016 04:04 13,8 C 20,3 C 67 % 1020,8 hPa 0,0 l/m 0,0 km/h (0 Bft) O 80 0 min 0 lux 0 W/m
31.08.2016 04:09 13,8 C 20,3 C 68 % 1020,8 hPa 0,0 l/m 0,0 km/h (0 Bft) O 80 0 min 0 lux 0 W/m
31.08.2016 04:14 13,7 C 20,3 C 68 % 1019,8 hPa 0,0 l/m 0,0 km/h (0 Bft) O 80 0 min 0 lux 0 W/m
31.08.2016 04:19 13,6 C 20,2 C 68 % 1019,8 hPa 0,0 l/m 0,0 km/h (0 Bft) O 80 0 min 0 lux 0 W/m
31.08.2016 04:24 13,4 C 20,2 C 69 % 1019,8 hPa 0,0 l/m 0,0 km/h (0 Bft) O 80 0 min 0 lux 0 W/m
31.08.2016 04:29 13,3 C 20,0 C 69 % 1019,8 hPa 0,0 l/m 0,0 km/h (0 Bft) O 80 0 min 0 lux 0 W/m
31.08.2016 04:34 13,1 C 19,6 C 71 % 1019,8 hPa 0,0 l/m 0,0 km/h (0 Bft) O 80 0 min 0 lux 0 W/m
31.08.2016 04:39 13,0 C 19,7 C 70 % 1019,8 hPa 0,0 l/m 0,0 km/h (0 Bft) O 80 0 min 0 lux 0 W/m
31.08.2016 04:44 12,8 C 19,7 C 70 % 1019,8 hPa 0,0 l/m 0,0 km/h (0 Bft) O 80 0 min 0 lux 0 W/m
31.08.2016 04:49 12,8 C 19,7 C 70 % 1019,8 hPa 0,0 l/m 0,0 km/h (0 Bft) O 80 0 min 0 lux 0 W/m
31.08.2016 04:54 12,6 C 19,6 C 71 % 1019,8 hPa 0,0 l/m 0,1 km/h (0 Bft) O 80 0 min 0 lux 0 W/m
31.08.2016 04:59 12,7 C 19,7 C 71 % 1019,8 hPa 0,0 l/m 0,1 km/h (0 Bft) O 80 0 min 0 lux 0 W/m
31.08.2016 05:04 12,9 C 19,7 C 71 % 1019,8 hPa 0,0 l/m 0,2 km/h (0 Bft) O 80 0 min 0 lux 0 W/m
31.08.2016 05:09 13,0 C 19,7 C 71 % 1019,8 hPa 0,0 l/m 0,0 km/h (0 Bft) O 80 0 min 0 lux 0 W/m
31.08.2016 05:14 12,9 C 19,7 C 71 % 1019,8 hPa 0,0 l/m 0,0 km/h (0 Bft) O 80 0 min 0 lux 0 W/m
31.08.2016 05:19 12,9 C 19,7 C 71 % 1019,8 hPa 0,0 l/m 0,0 km/h (0 Bft) O 80 0 min 0 lux 0 W/m
31.08.2016 05:24 13,0 C 19,6 C 71 % 1019,8 hPa 0,0 l/m 0,3 km/h (0 Bft) O 80 0 min 0 lux 0 W/m
31.08.2016 05:29 13,0 C 19,6 C 72 % 1019,8 hPa 0,0 l/m 0,0 km/h (0 Bft) O 80 0 min 0 lux 0 W/m
31.08.2016 05:34 13,0 C 19,6 C 72 % 1019,8 hPa 0,0 l/m 0,3 km/h (0 Bft) O 80 0 min 0 lux 0 W/m
31.08.2016 05:39 13,0 C 19,5 C 72 % 1019,8 hPa 0,0 l/m 0,3 km/h (0 Bft) O 80 0 min 0 lux 0 W/m
31.08.2016 05:44 13,0 C 19,6 C 72 % 1019,8 hPa 0,0 l/m 2,9 km/h (1 Bft) O 80 0 min 0 lux 0 W/m
31.08.2016 05:49 13,0 C 19,6 C 72 % 1019,8 hPa 0,0 l/m 0,7 km/h (0 Bft) O 80 0 min 0 lux 0 W/m
31.08.2016 05:54 13,0 C 19,6 C 72 % 1019,8 hPa 0,0 l/m 0,6 km/h (0 Bft) O 80 0 min 0 lux 0 W/m
31.08.2016 05:59 13,0 C 19,5 C 72 % 1019,8 hPa 0,0 l/m 1,1 km/h (1 Bft) O 80 0 min 0 lux 0 W/m
31.08.2016 06:04 13,1 C 19,6 C 72 % 1019,8 hPa 0,0 l/m 3,6 km/h (1 Bft) O 85 0 min 0 lux 0 W/m
31.08.2016 06:08 13,1 C 19,5 C 72 % 1019,8 hPa 0,0 l/m 4,5 km/h (1 Bft) O 85 0 min 0 lux 0 W/m
31.08.2016 06:14 13,1 C 19,6 C 72 % 1019,8 hPa 0,0 l/m 5,7 km/h (2 Bft) O22.5 90 0 min 0 lux 0 W/m
31.08.2016 06:19 13,1 C 19,6 C 72 % 1019,8 hPa 0,0 l/m 0,7 km/h (0 Bft) O-SO 110 0 min 0 lux 0 W/m
31.08.2016 06:24 13,1 C 19,5 C 72 % 1019,8 hPa 0,0 l/m 6,1 km/h (2 Bft) O 100 0 min 0 lux 0 W/m
31.08.2016 06:29 13,2 C 19,5 C 72 % 1019,8 hPa 0,0 l/m 5,6 km/h (2 Bft) O 100 0 min 74 lux 0 W/m
31.08.2016 06:34 13,2 C 19,4 C 72 % 1019,8 hPa 0,0 l/m 1,3 km/h (1 Bft) O22.5 100 0 min 105 lux 0 W/m
31.08.2016 06:39 13,2 C 19,5 C 72 % 1019,8 hPa 0,0 l/m 6,2 km/h (2 Bft) O-SO22.5 105 0 min 269 lux 0 W/m
31.08.2016 06:44 13,2 C 19,4 C 72 % 1019,8 hPa 0,0 l/m 7,7 km/h (2 Bft) O22.5 90 0 min 437 lux 0 W/m
31.08.2016 06:49 13,2 C 19,4 C 71 % 1019,8 hPa 0,0 l/m 3,7 km/h (1 Bft) O 90 0 min 658 lux 0 W/m
31.08.2016 06:54 13,2 C 19,3 C 71 % 1019,8 hPa 0,0 l/m 1,0 km/h (0 Bft) O22.5 90 0 min 783 lux 5 W/m
31.08.2016 06:59 13,2 C 19,5 C 71 % 1019,8 hPa 0,0 l/m 3,5 km/h (1 Bft) O 95 0 min 783 lux 5 W/m
31.08.2016 07:04 13,2 C 19,5 C 71 % 1019,8 hPa 0,0 l/m 0,3 km/h (0 Bft) O-SO 105 0 min 1,31 klux 9 W/m
31.08.2016 07:09 13,2 C 19,4 C 71 % 1019,8 hPa 0,0 l/m 0,4 km/h (0 Bft) O-SO 110 0 min 1,31 klux 9 W/m
31.08.2016 07:14 13,2 C 19,5 C 71 % 1019,8 hPa 0,0 l/m 0,4 km/h (0 Bft) O-SO 110 0 min 1,31 klux 9 W/m
31.08.2016 07:19 13,2 C 19,6 C 71 % 1019,8 hPa 0,0 l/m 0,6 km/h (0 Bft) O-SO 110 0 min 1,96 klux 13 W/m
31.08.2016 07:23 13,3 C 19,5 C 71 % 1019,8 hPa 0,0 l/m 0,0 km/h (0 Bft) O-SO 110 0 min 2,32 klux 16 W/m
31.08.2016 07:29 13,3 C 19,3 C 71 % 1019,8 hPa 0,0 l/m 0,0 km/h (0 Bft) O-SO 110 0 min 2,53 klux 17 W/m
31.08.2016 07:34 13,3 C 19,3 C 71 % 1019,8 hPa 0,0 l/m 0,0 km/h (0 Bft) O-SO 110 0 min 2,62 klux 18 W/m
31.08.2016 07:39 13,3 C 19,2 C 71 % 1019,8 hPa 0,0 l/m 0,0 km/h (0 Bft) O-SO 110 0 min 3,03 klux 21 W/m
31.08.2016 07:44 13,5 C 19,3 C 71 % 1019,8 hPa 0,0 l/m 0,0 km/h (0 Bft) O-SO 110 0 min 3,56 klux 24 W/m
31.08.2016 07:49 13,5 C 19,4 C 71 % 1019,8 hPa 0,0 l/m 0,0 km/h (0 Bft) O-SO 110 0 min 3,70 klux 25 W/m
31.08.2016 07:54 13,7 C 19,5 C 71 % 1019,8 hPa 0,0 l/m 0,1 km/h (0 Bft) O-SO 110 0 min 4,49 klux 31 W/m
31.08.2016 07:59 13,9 C 19,4 C 71 % 1019,8 hPa 0,0 l/m 0,0 km/h (0 Bft) O-SO 110 0 min 3,74 klux 26 W/m
31.08.2016 08:04 14,0 C 18,5 C 71 % 1019,8 hPa 0,0 l/m 0,5 km/h (0 Bft) O-SO 110 0 min 3,74 klux 26 W/m
31.08.2016 08:09 14,2 C 18,7 C 71 % 1019,8 hPa 0,0 l/m 0,0 km/h (0 Bft) O-SO 110 0 min 5,11 klux 35 W/m
31.08.2016 08:14 14,6 C 18,3 C 70 % 1019,7 hPa 0,0 l/m 0,1 km/h (0 Bft) O-SO 110 0 min 4,29 klux 29 W/m
31.08.2016 08:19 14,7 C 18,2 C 70 % 1019,7 hPa 0,0 l/m 6,8 km/h (2 Bft) S-SO22.5 160 0 min 4,85 klux 33 W/m
31.08.2016 08:24 15,0 C 18,2 C 69 % 1019,7 hPa 0,0 l/m 6,2 km/h (2 Bft) S-SO 155 0 min 5,00 klux 34 W/m
31.08.2016 08:29 15,4 C 18,3 C 69 % 1019,7 hPa 0,0 l/m 8,2 km/h (2 Bft) S-SO22.5 160 0 min 12,6 klux 86 W/m
31.08.2016 08:34 16,0 C 18,4 C 66 % 1019,7 hPa 0,0 l/m 10,8 km/h (2 Bft) S-SO 150 0 min 19,7 klux 135 W/m
31.08.2016 08:39 16,4 C 18,4 C 65 % 1019,7 hPa 0,0 l/m 12,5 km/h (2 Bft) S-SO22.5 155 5 min 30,3 klux 207 W/m
31.08.2016 08:44 16,9 C 18,5 C 64 % 1019,7 hPa 0,0 l/m 12,0 km/h (2 Bft) S-SO22.5 160 5 min 32,7 klux 224 W/m
31.08.2016 08:49 17,1 C 18,8 C 63 % 1019,7 hPa 0,0 l/m 13,7 km/h (3 Bft) S-SO22.5 160 5 min 34,0 klux 233 W/m
31.08.2016 08:54 17,6 C 18,8 C 61 % 1019,7 hPa 0,0 l/m 13,0 km/h (3 Bft) SO45 145 5 min 35,2 klux 241 W/m
31.08.2016 08:59 17,9 C 18,9 C 60 % 1019,7 hPa 0,0 l/m 12,8 km/h (3 Bft) S-SO22.5 155 5 min 35,2 klux 241 W/m
31.08.2016 09:04 18,1 C 19,0 C 59 % 1019,7 hPa 0,0 l/m 13,0 km/h (3 Bft) SO22.5 145 5 min 36,5 klux 250 W/m
31.08.2016 09:09 18,4 C 19,1 C 58 % 1019,7 hPa 0,0 l/m 14,5 km/h (3 Bft) S-SO45 160 5 min 38,3 klux 262 W/m
31.08.2016 09:14 18,6 C 19,2 C 57 % 1019,7 hPa 0,0 l/m 15,5 km/h (3 Bft) S-SO22.5 160 5 min 38,9 klux 266 W/m
31.08.2016 09:19 18,9 C 19,3 C 57 % 1019,7 hPa 0,0 l/m 15,4 km/h (3 Bft) S-SO45 160 5 min 40,5 klux 277 W/m
31.08.2016 09:24 19,1 C 19,4 C 56 % 1019,7 hPa 0,0 l/m 15,0 km/h (3 Bft) S45 170 5 min 41,8 klux 286 W/m
31.08.2016 09:29 19,3 C 19,5 C 55 % 1019,7 hPa 0,0 l/m 13,3 km/h (3 Bft) S45 175 5 min 43,1 klux 295 W/m
31.08.2016 09:34 19,4 C 19,5 C 54 % 1019,7 hPa 0,0 l/m 19,4 km/h (3 Bft) S22.5 170 5 min 44,3 klux 303 W/m
31.08.2016 09:39 19,6 C 19,6 C 54 % 1019,7 hPa 0,0 l/m 15,3 km/h (3 Bft) S22.5 170 5 min 45,4 klux 311 W/m
31.08.2016 09:44 19,7 C 19,7 C 54 % 1019,7 hPa 0,0 l/m 14,0 km/h (3 Bft) S45 170 5 min 46,6 klux 319 W/m
31.08.2016 09:49 20,0 C 19,8 C 53 % 1018,7 hPa 0,0 l/m 12,7 km/h (3 Bft) S45 175 5 min 47,2 klux 323 W/m
31.08.2016 09:54 20,0 C 20,1 C 53 % 1018,7 hPa 0,0 l/m 11,1 km/h (2 Bft) S22.5 170 5 min 47,8 klux 327 W/m
31.08.2016 09:59 20,4 C 20,1 C 52 % 1018,7 hPa 0,0 l/m 14,3 km/h (3 Bft) S-SO22.5 160 5 min 49,6 klux 339 W/m
31.08.2016 10:04 20,7 C 20,2 C 52 % 1018,7 hPa 0,0 l/m 12,1 km/h (2 Bft) S-SO22.5 150 5 min 50,7 klux 347 W/m
31.08.2016 10:08 20,8 C 20,2 C 51 % 1018,7 hPa 0,0 l/m 16,6 km/h (3 Bft) S-SO22.5 160 4 min 51,8 klux 354 W/m
31.08.2016 10:14 20,8 C 20,5 C 51 % 1018,7 hPa 0,0 l/m 15,1 km/h (3 Bft) S-SO22.5 155 6 min 52,8 klux 361 W/m
31.08.2016 10:19 21,0 C 20,5 C 50 % 1018,7 hPa 0,0 l/m 15,1 km/h (3 Bft) S-SO22.5 155 5 min 54,2 klux 371 W/m
31.08.2016 10:24 21,1 C 20,6 C 50 % 1018,7 hPa 0,0 l/m 15,5 km/h (3 Bft) S-SO45 165 5 min 54,8 klux 375 W/m
31.08.2016 10:29 21,4 C 20,8 C 50 % 1018,7 hPa 0,0 l/m 13,8 km/h (3 Bft) S45 175 5 min 55,7 klux 381 W/m
31.08.2016 10:34 21,4 C 20,9 C 49 % 1018,7 hPa 0,0 l/m 13,3 km/h (3 Bft) S-SO22.5 160 5 min 56,7 klux 388 W/m
31.08.2016 10:39 21,7 C 21,0 C 51 % 1018,7 hPa 0,0 l/m 14,0 km/h (3 Bft) S22.5 175 5 min 57,9 klux 396 W/m
31.08.2016 10:44 22,0 C 20,9 C 50 % 1018,6 hPa 0,0 l/m 12,0 km/h (2 Bft) S22.5 185 5 min 58,6 klux 401 W/m
31.08.2016 10:49 22,2 C 21,1 C 49 % 1019,7 hPa 0,0 l/m 14,7 km/h (3 Bft) S22.5 175 5 min 58,8 klux 402 W/m
31.08.2016 10:54 22,1 C 21,4 C 50 % 1019,7 hPa 0,0 l/m 13,5 km/h (3 Bft) S45 180 5 min 60,2 klux 412 W/m
31.08.2016 10:59 22,2 C 21,4 C 49 % 1019,7 hPa 0,0 l/m 15,5 km/h (3 Bft) S-SO22.5 160 5 min 60,8 klux 416 W/m
31.08.2016 11:04 22,4 C 21,4 C 49 % 1019,6 hPa 0,0 l/m 14,2 km/h (3 Bft) S22.5 185 5 min 61,9 klux 423 W/m
31.08.2016 11:09 22,5 C 21,5 C 49 % 1019,6 hPa 0,0 l/m 14,3 km/h (3 Bft) S-SW45 195 5 min 62,7 klux 429 W/m
31.08.2016 11:14 22,5 C 21,5 C 48 % 1018,6 hPa 0,0 l/m 11,0 km/h (2 Bft) S-SO22.5 165 5 min 63,5 klux 434 W/m
31.08.2016 11:19 22,6 C 21,7 C 49 % 1018,6 hPa 0,0 l/m 14,8 km/h (3 Bft) S-SO22.5 160 5 min 63,8 klux 436 W/m
31.08.2016 11:24 22,9 C 21,7 C 48 % 1018,6 hPa 0,0 l/m 16,3 km/h (3 Bft) SO22.5 145 5 min 64,5 klux 441 W/m
31.08.2016 11:29 22,9 C 21,8 C 48 % 1018,6 hPa 0,0 l/m 14,1 km/h (3 Bft) S22.5 170 5 min 65,7 klux 449 W/m
31.08.2016 11:34 23,2 C 21,9 C 48 % 1018,6 hPa 0,0 l/m 12,3 km/h (2 Bft) S45 170 5 min 66,1 klux 452 W/m
31.08.2016 11:39 23,3 C 22,1 C 48 % 1018,6 hPa 0,0 l/m 12,7 km/h (3 Bft) S-SO22.5 160 5 min 66,6 klux 456 W/m
31.08.2016 11:44 23,5 C 22,2 C 46 % 1018,6 hPa 0,0 l/m 11,3 km/h (2 Bft) S-SO45 160 5 min 67,4 klux 461 W/m
31.08.2016 11:48 23,6 C 22,2 C 45 % 1018,6 hPa 0,0 l/m 12,3 km/h (2 Bft) S-SO22.5 150 4 min 68,2 klux 466 W/m
31.08.2016 11:54 23,6 C 22,1 C 47 % 1018,6 hPa 0,0 l/m 13,3 km/h (3 Bft) S-SO45 165 6 min 68,6 klux 469 W/m
31.08.2016 11:59 23,9 C 22,5 C 45 % 1018,6 hPa 0,0 l/m 4,5 km/h (1 Bft) S-SO22.5 165 5 min 69,2 klux 473 W/m
31.08.2016 12:04 24,1 C 22,7 C 44 % 1018,6 hPa 0,0 l/m 11,8 km/h (2 Bft) SO22.5 140 5 min 69,8 klux 477 W/m
31.08.2016 12:09 24,1 C 22,5 C 44 % 1018,6 hPa 0,0 l/m 13,1 km/h (3 Bft) S-SW22.5 195 5 min 70,8 klux 484 W/m
31.08.2016 12:14 24,3 C 22,8 C 44 % 1018,6 hPa 0,0 l/m 3,0 km/h (1 Bft) SO67.5 140 5 min 70,4 klux 482 W/m
31.08.2016 12:19 24,3 C 22,8 C 44 % 1018,6 hPa 0,0 l/m 13,6 km/h (3 Bft) S45 170 5 min 71,1 klux 486 W/m
31.08.2016 12:24 24,3 C 22,8 C 45 % 1018,6 hPa 0,0 l/m 12,4 km/h (2 Bft) S-SO45 150 5 min 71,6 klux 490 W/m
31.08.2016 12:29 24,6 C 23,0 C 45 % 1018,6 hPa 0,0 l/m 12,5 km/h (2 Bft) S-SW22.5 195 5 min 71,6 klux 490 W/m
31.08.2016 12:34 25,0 C 22,9 C 44 % 1018,6 hPa 0,0 l/m 10,4 km/h (2 Bft) S22.5 185 5 min 72,1 klux 493 W/m
31.08.2016 12:39 25,1 C 23,1 C 44 % 1018,6 hPa 0,0 l/m 12,0 km/h (2 Bft) S-SW45 200 5 min 72,2 klux 494 W/m
31.08.2016 12:44 25,3 C 23,2 C 44 % 1018,6 hPa 0,0 l/m 10,4 km/h (2 Bft) S-SW22.5 195 5 min 72,4 klux 495 W/m
31.08.2016 12:49 25,0 C 23,1 C 43 % 1018,6 hPa 0,0 l/m 11,2 km/h (2 Bft) SW22.5 215 5 min 72,7 klux 497 W/m
31.08.2016 12:54 25,4 C 23,6 C 43 % 1018,6 hPa 0,0 l/m 16,5 km/h (3 Bft) S45 190 5 min 73,0 klux 499 W/m
31.08.2016 12:58 25,5 C 23,2 C 42 % 1018,6 hPa 0,0 l/m 6,8 km/h (2 Bft) S 180 4 min 73,2 klux 501 W/m
31.08.2016 13:04 25,6 C 23,7 C 42 % 1018,6 hPa 0,0 l/m 12,6 km/h (3 Bft) S-SW22.5 205 6 min 74,0 klux 506 W/m
31.08.2016 13:09 25,6 C 23,4 C 41 % 1018,6 hPa 0,0 l/m 15,1 km/h (3 Bft) SW45 235 5 min 74,2 klux 508 W/m
31.08.2016 13:14 25,6 C 23,4 C 40 % 1018,6 hPa 0,0 l/m 13,5 km/h (3 Bft) SW45 215 5 min 74,5 klux 510 W/m
31.08.2016 13:19 25,9 C 23,4 C 41 % 1018,6 hPa 0,0 l/m 9,6 km/h (2 Bft) S-SW22.5 195 5 min 74,2 klux 508 W/m
31.08.2016 13:24 26,2 C 23,7 C 41 % 1018,6 hPa 0,0 l/m 12,0 km/h (2 Bft) S-SO22.5 160 5 min 74,9 klux 512 W/m
31.08.2016 13:29 26,6 C 23,8 C 41 % 1018,6 hPa 0,0 l/m 8,9 km/h (2 Bft) S45 170 5 min 74,4 klux 509 W/m
31.08.2016 13:34 26,6 C 24,0 C 40 % 1018,6 hPa 0,0 l/m 11,1 km/h (2 Bft) S-SW67.5 210 5 min 74,4 klux 509 W/m
31.08.2016 13:39 26,6 C 24,0 C 40 % 1018,6 hPa 0,0 l/m 9,6 km/h (2 Bft) S22.5 190 5 min 74,4 klux 509 W/m
31.08.2016 13:43 26,9 C 24,2 C 40 % 1018,6 hPa 0,0 l/m 14,0 km/h (3 Bft) S-SW45 210 4 min 74,5 klux 510 W/m
31.08.2016 13:49 27,2 C 24,7 C 38 % 1018,6 hPa 0,0 l/m 14,1 km/h (3 Bft) SW22.5 215 6 min 74,5 klux 510 W/m
31.08.2016 13:54 26,9 C 25,0 C 38 % 1018,6 hPa 0,0 l/m 11,5 km/h (2 Bft) S-SW22.5 210 5 min 74,3 klux 508 W/m
31.08.2016 13:59 26,6 C 24,9 C 38 % 1018,6 hPa 0,0 l/m 14,5 km/h (3 Bft) SW22.5 215 5 min 73,0 klux 499 W/m
31.08.2016 14:04 27,1 C 25,1 C 39 % 1018,6 hPa 0,0 l/m 11,6 km/h (2 Bft) S-SW22.5 210 5 min 74,1 klux 507 W/m
31.08.2016 14:09 26,6 C 25,4 C 39 % 1018,6 hPa 0,0 l/m 11,1 km/h (2 Bft) SW67.5 230 5 min 78,4 klux 536 W/m
31.08.2016 14:14 26,9 C 25,7 C 40 % 1018,6 hPa 0,0 l/m 21,6 km/h (4 Bft) S-SW45 195 5 min 77,9 klux 533 W/m
31.08.2016 14:19 27,0 C 25,3 C 38 % 1018,6 hPa 0,0 l/m 19,3 km/h (3 Bft) S-SW22.5 205 5 min 72,8 klux 498 W/m
31.08.2016 14:24 27,4 C 26,0 C 39 % 1018,6 hPa 0,0 l/m 17,6 km/h (3 Bft) S-SW45 210 5 min 71,8 klux 491 W/m
31.08.2016 14:29 27,6 C 26,1 C 38 % 1018,6 hPa 0,0 l/m 16,0 km/h (3 Bft) SW45 220 5 min 71,8 klux 491 W/m
31.08.2016 14:34 27,5 C 26,0 C 39 % 1018,6 hPa 0,0 l/m 17,4 km/h (3 Bft) S22.5 190 5 min 71,6 klux 490 W/m
31.08.2016 14:39 27,6 C 26,3 C 40 % 1017,6 hPa 0,0 l/m 18,4 km/h (3 Bft) SW67.5 230 5 min 71,8 klux 491 W/m
31.08.2016 14:44 27,6 C 25,7 C 39 % 1017,6 hPa 0,0 l/m 16,6 km/h (3 Bft) SW22.5 215 5 min 71,7 klux 490 W/m
31.08.2016 14:49 27,7 C 24,7 C 38 % 1017,6 hPa 0,0 l/m 1,0 km/h (0 Bft) SO 145 5 min 71,2 klux 487 W/m
31.08.2016 14:54 27,6 C 26,8 C 39 % 1017,6 hPa 0,0 l/m 15,6 km/h (3 Bft) SW45 225 5 min 69,1 klux 473 W/m
31.08.2016 14:59 27,8 C 26,4 C 38 % 1017,6 hPa 0,0 l/m 21,1 km/h (4 Bft) SW67.5 230 5 min 70,4 klux 482 W/m
31.08.2016 15:04 27,4 C 26,3 C 39 % 1017,6 hPa 0,0 l/m 16,6 km/h (3 Bft) W-SW45 250 5 min 67,8 klux 464 W/m
31.08.2016 15:09 27,4 C 26,9 C 38 % 1017,6 hPa 0,0 l/m 14,1 km/h (3 Bft) SW45 225 5 min 67,6 klux 462 W/m
31.08.2016 15:14 27,8 C 25,7 C 39 % 1017,6 hPa 0,0 l/m 1,0 km/h (0 Bft) W 265 5 min 72,0 klux 492 W/m
31.08.2016 15:19 28,0 C 27,2 C 37 % 1017,6 hPa 0,0 l/m 18,0 km/h (3 Bft) S45 190 5 min 71,0 klux 486 W/m
31.08.2016 15:24 27,8 C 27,1 C 37 % 1017,6 hPa 0,0 l/m 20,1 km/h (4 Bft) SW22.5 220 5 min 70,1 klux 479 W/m
31.08.2016 15:29 27,6 C 26,5 C 36 % 1017,6 hPa 0,0 l/m 25,4 km/h (4 Bft) W-SW45 250 0 min 49,2 klux 337 W/m
31.08.2016 15:34 27,3 C 26,6 C 38 % 1017,6 hPa 0,0 l/m 17,0 km/h (3 Bft) SW22.5 225 5 min 67,4 klux 461 W/m
31.08.2016 15:39 27,8 C 27,7 C 37 % 1017,6 hPa 0,0 l/m 13,8 km/h (3 Bft) SW22.5 215 5 min 68,2 klux 466 W/m
31.08.2016 15:44 27,4 C 27,0 C 37 % 1017,6 hPa 0,0 l/m 23,0 km/h (4 Bft) W-SW45 245 5 min 66,3 klux 453 W/m
31.08.2016 15:49 27,4 C 26,8 C 37 % 1017,6 hPa 0,0 l/m 25,5 km/h (4 Bft) W-NW45 285 5 min 68,7 klux 470 W/m
31.08.2016 15:54 27,9 C 27,7 C 37 % 1017,6 hPa 0,0 l/m 22,6 km/h (4 Bft) W67.5 260 5 min 67,3 klux 460 W/m
31.08.2016 15:59 28,2 C 27,7 C 37 % 1017,6 hPa 0,0 l/m 32,7 km/h (5 Bft) W-SW67.5 245 0 min 26,3 klux 180 W/m
31.08.2016 16:04 28,0 C 27,9 C 38 % 1017,6 hPa 0,0 l/m 23,5 km/h (4 Bft) W-SW22.5 240 5 min 62,3 klux 426 W/m
31.08.2016 16:09 27,5 C 27,1 C 38 % 1017,6 hPa 0,0 l/m 24,0 km/h (4 Bft) W-SW67.5 250 5 min 59,9 klux 410 W/m
31.08.2016 16:14 28,0 C 27,9 C 38 % 1017,6 hPa 0,0 l/m 23,3 km/h (4 Bft) SW45 235 5 min 66,2 klux 453 W/m
31.08.2016 16:19 28,2 C 27,6 C 37 % 1017,6 hPa 0,0 l/m 27,1 km/h (5 Bft) SW45 225 5 min 63,0 klux 431 W/m
31.08.2016 16:25 27,5 C 26,8 C 38 % 1017,6 hPa 0,0 l/m 22,5 km/h (4 Bft) SW45 235 0 min 34,9 klux 239 W/m
31.08.2016 16:29 27,7 C 27,4 C 38 % 1017,6 hPa 0,0 l/m 19,5 km/h (3 Bft) SW22.5 235 4 min 61,3 klux 419 W/m
31.08.2016 16:34 27,9 C 27,8 C 37 % 1017,6 hPa 0,0 l/m 19,4 km/h (3 Bft) W-SW45 255 5 min 58,3 klux 399 W/m
31.08.2016 16:39 28,1 C 27,7 C 37 % 1017,6 hPa 0,0 l/m 21,6 km/h (4 Bft) W-SW45 255 5 min 55,0 klux 376 W/m
31.08.2016 16:44 27,8 C 27,4 C 37 % 1017,6 hPa 0,0 l/m 24,1 km/h (4 Bft) W67.5 260 5 min 54,9 klux 376 W/m
31.08.2016 16:49 27,5 C 28,0 C 38 % 1017,6 hPa 0,0 l/m 24,5 km/h (4 Bft) W22.5 260 5 min 55,8 klux 382 W/m
31.08.2016 16:54 27,7 C 27,6 C 37 % 1017,6 hPa 0,0 l/m 30,5 km/h (5 Bft) W-SW22.5 240 5 min 55,0 klux 376 W/m
31.08.2016 16:59 27,9 C 27,9 C 37 % 1017,6 hPa 0,0 l/m 22,4 km/h (4 Bft) W-SW45 240 5 min 50,2 klux 343 W/m
31.08.2016 17:04 27,8 C 28,0 C 37 % 1017,6 hPa 0,0 l/m 17,9 km/h (3 Bft) SW45 235 5 min 49,3 klux 337 W/m
31.08.2016 17:10 28,2 C 28,0 C 36 % 1017,6 hPa 0,0 l/m 30,1 km/h (5 Bft) W-SW22.5 250 6 min 48,5 klux 332 W/m
31.08.2016 17:14 27,7 C 27,7 C 37 % 1017,6 hPa 0,0 l/m 33,5 km/h (5 Bft) W-SW67.5 250 4 min 47,6 klux 326 W/m
31.08.2016 17:19 27,6 C 27,5 C 37 % 1017,6 hPa 0,0 l/m 24,7 km/h (4 Bft) W-SW45 255 5 min 46,5 klux 318 W/m
31.08.2016 17:24 27,6 C 27,6 C 37 % 1017,6 hPa 0,0 l/m 31,0 km/h (5 Bft) W-SW45 250 5 min 45,4 klux 311 W/m
31.08.2016 17:29 27,6 C 27,5 C 38 % 1017,6 hPa 0,0 l/m 24,0 km/h (4 Bft) W-SW22.5 250 5 min 41,6 klux 285 W/m
31.08.2016 17:35 26,9 C 27,3 C 40 % 1017,6 hPa 0,0 l/m 29,5 km/h (5 Bft) W-NW22.5 295 6 min 43,3 klux 296 W/m
31.08.2016 17:39 26,8 C 26,7 C 40 % 1017,6 hPa 0,0 l/m 20,6 km/h (4 Bft) W-NW22.5 295 4 min 42,4 klux 290 W/m
31.08.2016 17:44 27,0 C 27,5 C 39 % 1017,6 hPa 0,0 l/m 32,1 km/h (5 Bft) W-SW45 250 5 min 37,6 klux 257 W/m
31.08.2016 17:49 27,0 C 27,4 C 39 % 1017,6 hPa 0,0 l/m 24,9 km/h (4 Bft) W-NW45 285 5 min 38,8 klux 265 W/m
31.08.2016 17:54 26,8 C 27,0 C 40 % 1017,6 hPa 0,0 l/m 22,6 km/h (4 Bft) W-NW45 285 5 min 37,6 klux 257 W/m
31.08.2016 17:59 26,8 C 26,6 C 40 % 1017,6 hPa 0,0 l/m 29,6 km/h (5 Bft) W22.5 280 5 min 33,8 klux 231 W/m
31.08.2016 18:04 26,4 C 26,6 C 41 % 1017,6 hPa 0,0 l/m 27,1 km/h (5 Bft) W-NW45 300 5 min 32,7 klux 224 W/m
31.08.2016 18:09 26,3 C 26,1 C 42 % 1017,6 hPa 0,0 l/m 29,0 km/h (5 Bft) NW22.5 310 5 min 31,9 klux 218 W/m
31.08.2016 18:14 26,4 C 26,0 C 41 % 1017,6 hPa 0,0 l/m 25,0 km/h (4 Bft) W22.5 280 5 min 31,1 klux 213 W/m
31.08.2016 18:20 26,4 C 25,9 C 42 % 1017,6 hPa 0,0 l/m 22,3 km/h (4 Bft) W-NW22.5 300 6 min 29,3 klux 200 W/m
31.08.2016 18:24 26,5 C 26,1 C 41 % 1017,6 hPa 0,0 l/m 26,0 km/h (4 Bft) W-NW45 295 0 min 22,1 klux 151 W/m
31.08.2016 18:29 26,6 C 26,0 C 41 % 1017,6 hPa 0,0 l/m 29,4 km/h (5 Bft) W22.5 280 0 min 8,65 klux 59 W/m
31.08.2016 18:34 26,4 C 25,7 C 42 % 1017,6 hPa 0,0 l/m 27,3 km/h (5 Bft) W22.5 280 0 min 8,01 klux 55 W/m
31.08.2016 18:39 26,1 C 25,6 C 42 % 1017,6 hPa 0,0 l/m 23,4 km/h (4 Bft) W-NW45 295 0 min 10,5 klux 72 W/m
31.08.2016 18:45 26,0 C 25,6 C 42 % 1017,6 hPa 0,0 l/m 25,9 km/h (4 Bft) NW45 305 6 min 23,1 klux 158 W/m
31.08.2016 18:49 25,8 C 25,6 C 42 % 1017,6 hPa 0,0 l/m 20,0 km/h (4 Bft) W-NW45 300 4 min 21,9 klux 150 W/m
31.08.2016 18:54 25,7 C 25,4 C 42 % 1017,6 hPa 0,0 l/m 22,8 km/h (4 Bft) W-NW45 295 5 min 20,4 klux 140 W/m
31.08.2016 18:59 25,7 C 25,6 C 42 % 1017,6 hPa 0,0 l/m 25,5 km/h (4 Bft) W-NW22.5 295 5 min 19,6 klux 134 W/m
31.08.2016 19:05 25,6 C 25,3 C 42 % 1017,6 hPa 0,0 l/m 25,4 km/h (4 Bft) W-NW22.5 290 6 min 18,7 klux 128 W/m
31.08.2016 19:09 25,6 C 25,4 C 43 % 1017,6 hPa 0,0 l/m 23,4 km/h (4 Bft) W-NW22.5 295 4 min 16,7 klux 114 W/m
31.08.2016 19:14 25,4 C 25,3 C 42 % 1017,6 hPa 0,0 l/m 22,5 km/h (4 Bft) W-NW22.5 300 5 min 15,9 klux 109 W/m
31.08.2016 19:19 25,4 C 25,2 C 42 % 1017,6 hPa 0,0 l/m 22,5 km/h (4 Bft) W-NW22.5 285 5 min 14,5 klux 99 W/m
31.08.2016 19:24 25,2 C 25,1 C 42 % 1017,6 hPa 0,0 l/m 23,0 km/h (4 Bft) W-NW22.5 285 5 min 13,1 klux 90 W/m
31.08.2016 19:30 25,0 C 25,1 C 42 % 1017,6 hPa 0,0 l/m 21,3 km/h (4 Bft) W22.5 280 6 min 10,8 klux 74 W/m
31.08.2016 19:34 25,0 C 25,0 C 43 % 1017,6 hPa 0,0 l/m 18,9 km/h (3 Bft) W-NW22.5 290 4 min 10,2 klux 70 W/m
31.08.2016 19:39 24,8 C 24,9 C 43 % 1017,6 hPa 0,0 l/m 15,9 km/h (3 Bft) W-NW45 295 0 min 7,44 klux 51 W/m
31.08.2016 19:44 24,5 C 24,8 C 44 % 1017,6 hPa 0,0 l/m 15,6 km/h (3 Bft) W-NW22.5 295 0 min 5,48 klux 37 W/m
31.08.2016 19:49 24,4 C 24,8 C 45 % 1017,6 hPa 0,0 l/m 17,8 km/h (3 Bft) W-NW22.5 290 0 min 2,28 klux 16 W/m
31.08.2016 19:54 24,1 C 24,7 C 45 % 1017,6 hPa 0,0 l/m 19,8 km/h (3 Bft) NW45 305 0 min 1,65 klux 11 W/m
31.08.2016 19:59 24,0 C 24,5 C 46 % 1017,6 hPa 0,0 l/m 15,3 km/h (3 Bft) NW45 305 0 min 1,32 klux 9 W/m
31.08.2016 20:04 23,8 C 24,5 C 47 % 1017,6 hPa 0,0 l/m 12,3 km/h (2 Bft) W-NW45 290 0 min 1,12 klux 8 W/m
31.08.2016 20:09 23,7 C 24,5 C 47 % 1017,6 hPa 0,0 l/m 13,6 km/h (3 Bft) W-NW22.5 300 0 min 741 lux 5 W/m
31.08.2016 20:15 23,5 C 24,4 C 48 % 1017,6 hPa 0,0 l/m 15,3 km/h (3 Bft) W-NW22.5 295 0 min 629 lux 4 W/m
31.08.2016 20:19 23,4 C 24,4 C 48 % 1017,6 hPa 0,0 l/m 12,1 km/h (2 Bft) W-NW22.5 300 0 min 464 lux 0 W/m
31.08.2016 20:24 23,4 C 24,3 C 49 % 1017,6 hPa 0,0 l/m 12,0 km/h (2 Bft) W-NW45 285 0 min 393 lux 0 W/m
31.08.2016 20:29 23,2 C 24,2 C 50 % 1017,6 hPa 0,0 l/m 8,5 km/h (2 Bft) W-NW22.5 290 0 min 246 lux 0 W/m
31.08.2016 20:34 23,0 C 24,1 C 51 % 1017,6 hPa 0,0 l/m 9,6 km/h (2 Bft) W-NW45 285 0 min 140 lux 0 W/m
31.08.2016 20:39 23,0 C 24,1 C 51 % 1017,6 hPa 0,0 l/m 8,2 km/h (2 Bft) W-NW45 290 0 min 68 lux 0 W/m
31.08.2016 20:44 22,7 C 24,0 C 52 % 1017,6 hPa 0,0 l/m 1,8 km/h (1 Bft) N 355 0 min 30 lux 0 W/m
31.08.2016 20:49 22,4 C 23,9 C 53 % 1017,6 hPa 0,0 l/m 1,5 km/h (1 Bft) N-NW22.5 345 0 min 12 lux 0 W/m
31.08.2016 20:54 22,4 C 23,9 C 53 % 1017,6 hPa 0,0 l/m 0,7 km/h (0 Bft) N-NW 340 0 min 5 lux 0 W/m
31.08.2016 20:59 22,2 C 23,9 C 54 % 1017,6 hPa 0,0 l/m 9,4 km/h (2 Bft) N22.5 355 0 min 4 lux 0 W/m
31.08.2016 21:04 22,1 C 23,8 C 54 % 1018,6 hPa 0,0 l/m 5,2 km/h (1 Bft) N 355 0 min 1 lux 0 W/m
31.08.2016 21:09 22,0 C 23,9 C 53 % 1018,6 hPa 0,0 l/m 0,1 km/h (0 Bft) N 355 0 min 1 lux 0 W/m
31.08.2016 21:14 21,7 C 23,8 C 54 % 1018,7 hPa 0,0 l/m 4,1 km/h (1 Bft) N 355 0 min 1 lux 0 W/m
31.08.2016 21:19 21,7 C 23,8 C 55 % 1018,7 hPa 0,0 l/m 0,0 km/h (0 Bft) N 355 0 min 1 lux 0 W/m
31.08.2016 21:25 21,4 C 23,8 C 55 % 1018,7 hPa 0,0 l/m 0,7 km/h (0 Bft) N 355 0 min 1 lux 0 W/m
31.08.2016 21:29 21,2 C 23,6 C 55 % 1018,7 hPa 0,0 l/m 0,7 km/h (0 Bft) N 355 0 min 0 lux 0 W/m
31.08.2016 21:34 20,8 C 23,6 C 56 % 1018,7 hPa 0,0 l/m 4,2 km/h (1 Bft) N 350 0 min 0 lux 0 W/m
31.08.2016 21:39 20,4 C 23,6 C 57 % 1018,7 hPa 0,0 l/m 0,9 km/h (0 Bft) N 350 0 min 0 lux 0 W/m
31.08.2016 21:44 20,2 C 23,5 C 57 % 1018,7 hPa 0,0 l/m 0,0 km/h (0 Bft) N 350 0 min 0 lux 0 W/m
31.08.2016 21:50 20,0 C 23,5 C 58 % 1018,7 hPa 0,0 l/m 0,0 km/h (0 Bft) N 350 0 min 0 lux 0 W/m
31.08.2016 21:54 19,8 C 23,5 C 58 % 1018,7 hPa 0,0 l/m 0,0 km/h (0 Bft) N 350 0 min 0 lux 0 W/m
31.08.2016 21:59 19,8 C 23,5 C 59 % 1018,7 hPa 0,0 l/m 0,0 km/h (0 Bft) N 350 0 min 0 lux 0 W/m
31.08.2016 22:04 19,5 C 23,2 C 60 % 1018,7 hPa 0,0 l/m 0,0 km/h (0 Bft) N 350 0 min 0 lux 0 W/m
31.08.2016 22:09 19,3 C 23,2 C 61 % 1018,7 hPa 0,0 l/m 0,0 km/h (0 Bft) N 350 0 min 0 lux 0 W/m
31.08.2016 22:14 19,3 C 23,2 C 60 % 1018,7 hPa 0,0 l/m 0,0 km/h (0 Bft) N 350 0 min 0 lux 0 W/m
31.08.2016 22:19 19,2 C 23,1 C 60 % 1018,7 hPa 0,0 l/m 0,0 km/h (0 Bft) N 350 0 min 0 lux 0 W/m
31.08.2016 22:24 18,9 C 23,1 C 61 % 1018,7 hPa 0,0 l/m 0,0 km/h (0 Bft) N 350 0 min 0 lux 0 W/m
31.08.2016 22:29 18,8 C 23,0 C 61 % 1018,7 hPa 0,0 l/m 0,0 km/h (0 Bft) N 350 0 min 0 lux 0 W/m
31.08.2016 22:34 18,7 C 23,1 C 61 % 1018,7 hPa 0,0 l/m 0,0 km/h (0 Bft) N 350 0 min 0 lux 0 W/m
31.08.2016 22:39 18,5 C 23,0 C 63 % 1018,7 hPa 0,0 l/m 0,0 km/h (0 Bft) N 350 0 min 0 lux 0 W/m
31.08.2016 22:44 18,6 C 23,0 C 63 % 1018,7 hPa 0,0 l/m 0,0 km/h (0 Bft) N 350 0 min 0 lux 0 W/m
31.08.2016 22:49 18,4 C 23,0 C 63 % 1018,7 hPa 0,0 l/m 0,0 km/h (0 Bft) N 350 0 min 0 lux 0 W/m
31.08.2016 22:54 18,3 C 22,9 C 63 % 1018,7 hPa 0,0 l/m 0,0 km/h (0 Bft) N 350 0 min 0 lux 0 W/m
31.08.2016 22:59 18,4 C 22,9 C 64 % 1018,7 hPa 0,0 l/m 0,0 km/h (0 Bft) N 350 0 min 0 lux 0 W/m
31.08.2016 23:04 18,5 C 22,9 C 64 % 1018,7 hPa 0,0 l/m 0,0 km/h (0 Bft) N 350 0 min 0 lux 0 W/m
31.08.2016 23:09 18,5 C 22,9 C 64 % 1018,7 hPa 0,0 l/m 0,0 km/h (0 Bft) N 350 0 min 0 lux 0 W/m
31.08.2016 23:15 18,4 C 22,8 C 64 % 1018,7 hPa 0,0 l/m 0,0 km/h (0 Bft) N 350 0 min 0 lux 0 W/m
31.08.2016 23:19 18,4 C 22,9 C 64 % 1018,7 hPa 0,0 l/m 0,3 km/h (0 Bft) N45 360 0 min 0 lux 0 W/m
31.08.2016 23:24 18,4 C 22,8 C 64 % 1018,7 hPa 0,0 l/m 0,0 km/h (0 Bft) O-NO 65 0 min 0 lux 0 W/m
31.08.2016 23:29 18,6 C 22,8 C 65 % 1018,7 hPa 0,0 l/m 0,1 km/h (0 Bft) O-NO 65 0 min 0 lux 0 W/m
31.08.2016 23:34 18,7 C 22,7 C 66 % 1018,7 hPa 0,0 l/m 0,0 km/h (0 Bft) O-NO 65 0 min 0 lux 0 W/m
31.08.2016 23:39 18,7 C 22,7 C 66 % 1018,7 hPa 0,0 l/m 0,0 km/h (0 Bft) O-NO 65 0 min 0 lux 0 W/m
31.08.2016 23:44 18,5 C 22,7 C 66 % 1018,7 hPa 0,0 l/m 0,4 km/h (0 Bft) O22.5 80 0 min 0 lux 0 W/m
31.08.2016 23:49 18,4 C 22,7 C 66 % 1018,7 hPa 0,0 l/m 0,0 km/h (0 Bft) O 85 0 min 0 lux 0 W/m
31.08.2016 23:54 18,4 C 22,7 C 66 % 1018,7 hPa 0,0 l/m 0,0 km/h (0 Bft) O 85 0 min 0 lux 0 W/m
31.08.2016 23:59 18,2 C 22,6 C 66 % 1018,7 hPa 0,0 l/m 0,0 km/h (0 Bft) O 85 0 min 0 lux 0 W/m
_ Min-Zeit 04:54 08:19 15:29 15:59 - 01:24 - - - - -
Minimum _ 12,6 C 18,2 C 36 % 1017,6 hPa - 0,0 km/h (0 Bft) - - - - -
_ Max-Zeit 15:59 16:49 05:29 01:09 00:04 17:14 - - 10:14 14:09 14:09
Maximum _ 28,2 C 28,0 C 72 % 1021,7 hPa 0,0 l/m 33,5 km/h
W-SW (5 Bft)
- - 6 min 78,4 klux 536 W/m
Durchschnitt _ 20,4 C 22,6 C 54 % 1019,0 hPa #0,0 l/m 9,7 km/h (2 Bft) W-NW - #10:25 h 25,0 klux 305 W/m